#timestamp,LO_Frequency,Hit,StdDev 
1513227615.4,286046995.4,N
1513227635.2,286046993.3,N
1513227655.0,286046991.3,N
1513227655.9,286046991.3,N
1513227675.8,286046986.5,N
1513227695.6,286046981.1,Y
1513227715.4,286046984.9,P
1513227735.3,286046991.3,N
1513227755.1,286046992.7,N
1513227775.8,286046990.7,N
1513227795.7,286046992.6,N
1513227815.5,286046988.0,N
1513227835.3,286046983.7,Y
1513227855.2,286046990.1,P
1513227875.9,286046990.6,P
1513227895.7,286046996.4,P
1513227915.6,286046996.0,N
1513227935.4,286046996.0,N
1513227955.2,286047000.3,N
1513227975.1,286046996.5,N
1513227976.0,286046996.5,N
1513227995.8,286046998.5,N
1513228015.6,286046998.2,N
1513228035.5,286047000.1,N
1513228055.3,286046996.9,N
1513228075.1,286047000.7,N
1513228095.8,286047002.1,N
1513228115.7,286047000.6,N
1513228135.5,286047002.4,N
1513228155.3,286047001.9,N
1513228175.2,286047001.5,N
1513228195.9,286047001.9,N
1513228215.7,286046998.7,N
1513228235.6,286047002.6,N
1513228255.4,286047004.4,N
1513228275.2,286047002.3,N
1513228295.1,286047004.2,N
1513228296.0,286047004.2,N
1513228315.8,286046999.9,N
1513228335.6,286047000.2,N
1513228355.4,286047001.2,N
1513228375.3,286047002.5,N
1513228395.1,286047002.3,N
1513228415.8,286047000.3,N
1513228435.7,286046998.9,N
1513228455.5,286047002.1,N
1513228475.3,286047002.4,N
1513228495.2,286047004.1,N
1513228515.9,286047002.0,N
1513228535.7,286047001.8,N
1513228555.6,286047003.9,N
1513228575.4,286047005.8,Y
1513228595.2,286047002.2,P
1513228615.1,286046999.7,N
1513228616.0,286046999.7,N
1513228635.8,286046998.7,N
1513228655.6,286047004.0,Y
1513228675.5,286047004.8,P
1513228695.3,286047004.6,N
1513228715.1,286047007.4,P
1513228735.9,286047007.8,Y
1513228755.7,286047005.2,P
1513228775.5,286047007.4,P
1513228795.4,286047002.9,N
1513228815.2,286047000.4,N
1513228835.0,286047002.2,N
1513228835.9,286047002.2,N
1513228855.8,286046998.9,N
1513228875.6,286046997.9,N
1513228895.4,286046997.7,N
1513228915.3,286046990.6,Y
1513228935.1,286046984.6,P
1513228936.0,286046984.6,N
1513228955.8,286046983.5,N
1513228975.6,286046979.3,N
1513228995.5,286046982.7,N
1513229015.3,286046985.0,N
1513229035.1,286046981.3,N
1513229055.9,286046977.1,Y
1513229075.7,286046991.4,P
1513229095.5,286046990.6,P
1513229115.4,286046987.6,P
1513229135.2,286046991.0,Y
1513229155.0,286047001.6,P
1513229155.9,286047001.6,N
1513229175.8,286047002.6,N
1513229195.6,286047003.2,N
1513229215.4,286047006.0,N
1513229235.3,286047007.0,N
1513229255.1,286047007.2,N
1513229275.8,286047010.4,N
1513229295.7,286047008.3,N
1513229315.5,286047014.0,N
1513229335.3,286047018.4,N
1513229355.2,286047023.5,Y
1513229375.9,286047014.5,P
1513229395.7,286047016.0,P
1513229415.6,286047014.2,P
1513229435.4,286047017.5,Y
1513229455.2,286047007.9,P
1513229475.1,286047010.3,P
1513229476.0,286047010.3,P
1513229495.8,286047010.6,Y
1513229515.6,286046999.7,P
1513229535.5,286047001.9,N
1513229555.3,286047000.3,N
1513229575.1,286047000.4,N
1513229595.9,286046997.0,N
1513229615.7,286046993.8,N
1513229635.5,286046994.4,N
1513229655.3,286046993.6,N
1513229675.2,286046993.4,N
1513229695.0,286046994.5,N
1513229695.9,286046994.5,N
1513229715.7,286046988.9,N
1513229735.6,286046989.6,N
1513229755.4,286046990.6,N
1513229775.2,286046986.9,N
1513229795.1,286046987.4,N
1513229796.0,286046987.4,N
1513229815.8,286046984.5,N
1513229835.6,286046984.9,N
1513229855.5,286046979.9,Y
1513229875.3,286046981.1,P
1513229895.1,286046977.7,P
1513229915.9,286046978.1,P
1513229935.7,286046972.9,Y
1513229955.5,286046989.2,P
1513229975.4,286046989.6,P
1513229995.2,286046990.3,P
1513230015.0,286046988.6,Y
1513230015.9,286046988.6,P
1513230035.8,286046999.4,N
1513230055.6,286046995.3,N
1513230075.4,286046991.0,N
1513230095.3,286046992.7,N
1513230115.1,286046995.0,N
1513230116.0,286046995.0,N
1513230135.8,286046994.2,N
1513230155.7,286046989.8,Y
1513230175.5,286046996.1,P
1513230195.3,286046995.2,P
1513230215.2,286046996.1,P
1513230235.9,286046992.5,Y
1513230255.7,286046993.0,P
1513230275.6,286046987.6,P
1513230295.4,286046989.9,P
1513230315.2,286046993.3,N
1513230335.1,286046992.0,N
1513230336.0,286046992.0,Y
1513230355.8,286047003.2,P
1513230375.6,286047008.8,N
1513230395.5,286047008.5,N
1513230415.3,286047008.7,N
1513230435.1,286047006.2,N
1513230455.8,286047010.6,N
1513230475.7,286047012.7,N
1513230495.5,286047016.3,N
1513230515.3,286047016.0,N
1513230535.2,286047014.9,N
1513230555.9,286047009.7,N
1513230575.7,286047010.1,N
1513230595.6,286047006.9,N
1513230615.4,286047005.6,N
1513230635.2,286047005.0,N
1513230655.1,286047009.2,N
1513230656.0,286047009.2,N
1513230675.8,286047011.6,N
1513230695.6,286047008.0,N
1513230715.5,286047008.6,N
1513230735.3,286047005.0,N
1513230755.1,286047010.4,N
1513230775.8,286047008.1,N
1513230795.7,286047013.6,N
1513230815.5,286047009.7,N
1513230835.3,286047008.2,N
1513230855.2,286047012.2,N
1513230875.9,286047011.9,N
1513230895.7,286047015.0,Y
1513230915.6,286047008.6,P
1513230935.4,286047006.2,P
1513230955.2,286047005.5,P
1513230975.1,286047005.6,Y
1513230976.0,286047005.6,P
1513230995.8,286046997.3,P
1513231015.6,286046999.1,N
1513231035.5,286046994.3,N
1513231055.3,286046988.9,N
1513231075.1,286046989.8,N
1513231095.9,286046985.4,N
1513231115.7,286046988.7,N
1513231135.5,286046987.0,N
1513231155.4,286046989.0,N
1513231175.2,286046990.9,N
1513231195.0,286046989.1,N
1513231195.9,286046989.1,N
